Find the Weather for any City, State  
or Zipcode, or Country:

West Linn, OR 97068 Weather
Local Radar
Local Radar  
Graphs, Details
Graphs and Gauges
Detailed Weather
Detailed Reports
Maps
Temperature
Heat Index
Windchill
Humidity
Radar
Dew Point
Wind
Visibility
Visible Satellite
Satellite
Fronts
Snow Depth
Jet Stream
Flight Rules
Forecast Maps
Temperature Forecast
Maximum Temperature Forecast
Minimum Temperature Forecast
Dewpoint Forecast
Prevalent Weather
12Hr Probability of Precip.
Sky Cover
Health Maps
UV Forecast
Air Quality
Peak Air Quality Index
Weather Station
Oregon Scientific WMR-968
Current Conditions [Select Refresh to Update]
Updated: 4:00am on 10/31/14
(location)
Currently:
54.7°
Clear
light rain mist
High: 55.6° 
(12:00am) 
Low: 54.7° 
(4:00am)
Wind: 0 mph from the NE
Gust: 0 mph
Today's High Wind: 5 mph (12:20am)
Humidity: 100%
Pressure: 29.69 in  (Falling) 
Pressure Rate: -0.028 in/hr
Dew Point: 54.7°
Wind Chill: 54.7°
Heat Index (feels like): 61.9°
Comfort Level: Cool
Temperature Rate:  -0.41°/hr
 
5 Day Forecast
 
Fri Sat Sun Mon Tue
Clear Clear Clear Clear Clear
Chance T-storms Chance Rain Chance Rain Chance Rain Chance Rain
57° 57° 57° 55° 57°
45° 43° 48° 52° 50°
Records and Normals
 
Temperature Forecast Normal Record
High 57°
(0)
Low 45°
(0)
 
Weather Advisories
No Advisories
Full Advisory Text...
Weather Map
Almanac
 
Sunrise:  
7:50am
Moonrise: 
2:35pm
Moon Phase:
46%
Sunset: 
6:00pm
Moonset:  
12:24am
 Star Chart...
Rainfall Totals
Hourly Rain 0.04 in
Daily Rain: 0.16 in
Monthly Rain: 5.31 in
Yearly Rain: 41.46 in
Normal Rain, month to date: 0.00 in
Normal Rain, year to date: 0.00 in
Local Weather Exchange® Network
Station ID City 
(Click for Map Location)
Neighborhood 
(Click for History)
Last Update (Date & Time) Temperature
 (°)
Dew
Point (°)
Humidity 
(%)
Wind 
(mph)
from the Wind Gust 
(mph) 
Pressure (in) Hourly
Rain (in)
KORWESTL3 West Linn Sunburst II 10/31 04:00:03 54.9 55.0 100 0 NNE 0 29.69 0.04
KORWESTL7 West Linn Hidden Springs 10/31 03:56:08 54.5 54.0 98 0 East 0 29.65 0.04
KORWESTL11 West Linn Ridgebrook Park 10/31 03:50:31 54.1 53.0 96 0 NE 0 29.68 0.02
KORWESTL13 West Linn Vineland 10/31 03:59:53 55.9 53.0 91 0 East 0 29.33 0.08
KORWESTL1 West Linn Beaver Nation on Skyline Ridge 10/31 03:59:56 56.3 55.0 95 0 North 0 29.69 0.02
MORCO3 West Linn HADS WILLAMETTE RIVER BELOW OREGON CI OR US USGS 10/31 03:15:00 56.0 54.0 92 3 NNE 5 29.63 0.00
KORLAKEO12 Lake Oswego Marylhurst University 10/31 03:59:51 58.3 58.0 100 0 SSW 0 29.37 0.04
KORWESTL14 West Linn Stafford - Tualatin Valley 10/31 03:56:08 54.5 54.0 100 0 North 0 29.82 0.00
KOROREGO29 Oregon City Canemah Way 10/31 04:00:01 54.6 54.0 98 0 West 2 29.67 0.03
KORGLADS5 GLADSTONE GLADSTONE (USA) 10/31 03:59:50 56.3 55.0 95 1 West 1 29.39 0.04
KOROREGO14 Oregon City 221 Molalla Avenue 10/31 04:00:05 55.3 55.0 100 2 NW 3 29.35 0.06
KORLAKEO17 Lake Oswego Palisades 10/31 03:55:54 54.7 54.0 97 0 North 0 29.72 0.00
KOROREGO10 Oregon City Tower Vista 10/31 04:00:08 54.7 55.0 98 2 WNW 2 29.68 0.04
KORGLADS6 Gladstone Gladstone - Gallweather.com 10/31 03:50:23 55.0 55.0 99 0 NE 0 29.65 0.06
KORPORTL111 Portland Oakgrove PO 1E (Milwaukie) 10/31 04:00:05 55.8 56.0 100 0 NNE 0 29.65 0.05
KORGLADS4 Gladstone Gladstone - Go Beavers! 10/31 03:59:33 55.0 54.0 97 0 NW 2 29.92 0.02
KORLAKEO14 Lake Oswego Rivergrove 10/31 03:55:16 55.7 56.0 100 0 North 0 29.60 0.08
KORMILWA9 Milwaukie Milwaukie @ 205 Clackamas 10/31 03:55:26 56.5 53.0 88 0 ESE 0 29.40 0.00
KORCLACK9 Clackamas 82nd Drive (GO BLAZERS) 10/31 03:59:58 55.4 55.0 100 0 WNW 1 29.66 0.04
KORCLACK8 Clackamas Watkins Park 10/31 04:00:06 54.9 54.0 97 1 NNW 4 29.60 0.02
KORCLACK6 Clackamas CHPCS Falcons 10/31 03:52:28 56.1 56.0 98 0 NE 0 29.61 0.00
KORLAKEO16 Lake Oswego Portland Near Road 10/31 03:51:05 56.3 0.0 98 4 North 0 --- 0.00
KORTUALA2 Tualatin 3DAdams Weather 10/31 04:00:03 56.3 56.0 97 0 SE 0 29.67 0.12
KORPORTL245 Portland SW Portland - Tryon Creek 10/31 03:50:49 54.9 55.0 99 0 NW 0 29.69 0.00
KORTUALA3 Tualatin Tualatin 10/31 03:54:10 55.3 54.0 94 0 ESE 0 29.51 0.00
KORMILWA5 Milwaukie meso_neigh26 10/31 04:00:05 55.8 55.0 100 0 North 3 29.64 0.05
KORTIGAR19 Tigard La maison de Saison (Bonita) 10/31 03:55:24 56.3 56.0 99 0 NW 0 29.66 0.11
KORMILWA6 Milwaukie Logus-Stanley 10/31 03:59:40 55.9 56.0 99 0 North 0 29.72 0.02
KORPORTL104 Portland West Portland Park 10/31 03:58:09 54.1 53.0 97 0 SE 0 29.64 0.07
KOROREGO23 Oregon City Bradley Rd 10/31 04:00:07 54.5 52.0 93 0 NE 1 29.65 0.00
KORCANBY8 Canby Quarter Moon Ranch Weather 10/31 03:59:23 56.5 56.0 98 1 NW 2 0.00 0.05
KORPORTL227 Portland Ardenwald Station #1 10/31 03:56:04 55.8 55.0 98 0 ENE 2 29.67 0.05
KORPORTL172 Portland Portland Rowing Club 10/31 04:00:07 55.9 55.0 98 0 North 0 29.71 0.10
KORPORTL200 Portland South Burlingame 10/31 04:00:04 55.8 54.0 92 0 North 0 29.32 0.00
KORTUALA7 Tualatin Lake Forest 10/31 04:00:01 56.3 56.0 98 0 ESE 0 29.50 0.09
KORCANBY3 Canby West of Fair Grounds 10/31 03:59:54 55.7 54.0 95 0 South 0 29.68 0.04
KORWILSO8 Wilsonville Charbonneau Lakeside 10/31 04:00:02 57.0 56.0 97 0 NNE 4 29.21 0.06
KORWILSO7 Wilsonville The Village at Main Street 10/31 04:00:08 57.2 55.0 93 0 North 0 29.38 0.08
KUAO Aurora Official Station 10/31 03:53:00 55.0 55.0 100 4 North --- 29.69 ---
KPDX Portland Official Station 10/31 03:53:00 56.0 55.0 97 4 ENE --- 29.69 ---
Full Advisory Text
No Warnings

© Ambient Weather and Weather Underground
 Never base important decisions on this or any weather information obtained from the Internet
Updated Automatically by Ambient Weather's Virtual Weather Station  V13.01